| time (UTC) | temp C | wind direction | speed KPH | gust KPH | rain 1hr cm | rain 24hr cm | rain mn cm | humidity % | barometer mb |
| 20260503004515 | 11 | 77 | 19.3 | 22.5 | 0.00 | 0.00 | 0.00 | ||
| 20260503003535 | 11 | 65 | 8.0 | 11.3 | 0.00 | 0.00 | 0.00 | ||
| 20260503002515 | 12 | 105 | 1.6 | 11.3 | 0.00 | 0.00 | 0.00 | ||
| 20260503001515 | 12 | 172 | 4.8 | 11.3 | 0.00 | 0.00 | 0.00 | ||
| 20260503000515 | 12 | 197 | 0.0 | 6.4 | 0.00 | 0.00 | 0.00 | ||
| 20260502235515 | 12 | 197 | 11.3 | 17.7 | 0.00 | 0.00 | 0.00 | ||
| 20260502234515 | 12 | 0.0 | 0.0 | 0.00 | 0.00 | 0.00 | |||
| 20260502233515 | 12 | 231 | 1.6 | 11.3 | 0.00 | 0.00 | 0.00 | ||
| 20260502232515 | 12 | 103 | 1.6 | 8.0 | 0.00 | 0.00 | 0.00 | ||
| 20260502231535 | 12 | 0.0 | 0.0 | 0.00 | 0.00 | 0.00 | |||
| 20260502230515 | 12 | 0.0 | 0.0 | 0.00 | 0.00 | 0.00 | |||
| 20260502225515 | 12 | 130 | 9.7 | 17.7 | 0.00 | 0.00 | 0.00 | ||
| 20260502224535 | 12 | 43 | 1.6 | 11.3 | 0.00 | 0.00 | 0.00 | ||
| 20260502223515 | 12 | 50 | 1.6 | 9.7 | 0.00 | 0.00 | 0.00 | ||
| 20260502222535 | 12 | 57 | 1.6 | 11.3 | 0.00 | 0.00 | 0.00 | ||
| 20260502221515 | 12 | 49 | 6.4 | 11.3 | 0.00 | 0.00 | 0.00 | ||
| 20260502220535 | 12 | 25 | 3.2 | 11.3 | 0.00 | 0.00 | 0.00 | ||
| 20260502215515 | 13 | 25 | 0.0 | 4.8 | 0.00 | 0.00 | 0.00 | ||
| 20260502214516 | 13 | 0.0 | 0.0 | 0.00 | 0.00 | 0.00 | |||
| 20260502213515 | 13 | 0.0 | 0.0 | 0.00 | 0.00 | 0.00 | |||
| 20260502212515 | 13 | 0.0 | 0.0 | 0.00 | 0.00 | 0.00 | |||
| 20260502211515 | 13 | 0.0 | 0.0 | 0.00 | 0.00 | 0.00 | |||
| 20260502210515 | 13 | 0.0 | 0.0 | 0.00 | 0.00 | 0.00 | |||
| 20260502205515 | 13 | 0.0 | 0.0 | 0.00 | 0.00 | 0.00 | |||
| 20260502204515 | 13 | 0.0 | 0.0 | 0.00 | 0.00 | 0.00 | |||
| 20260502203535 | 13 | 0.0 | 0.0 | 0.00 | 0.00 | 0.00 | |||
| 20260502202515 | 13 | 0.0 | 0.0 | 0.00 | 0.00 | 0.00 | |||
| 20260502201515 | 13 | 0.0 | 0.0 | 0.00 | 0.00 | 0.00 | |||
| 20260502200515 | 14 | 0.0 | 0.0 | 0.00 | 0.00 | 0.00 | |||
| 20260502195515 | 14 | 0.0 | 0.0 | 0.00 | 0.00 | 0.00 | |||
| 20260502194515 | 14 | 0.0 | 0.0 | 0.00 | 0.00 | 0.00 | |||
| 20260502193515 | 15 | 0.0 | 0.0 | 0.00 | 0.00 | 0.00 | |||
| 20260502192535 | 15 | 0.0 | 0.0 | 0.00 | 0.00 | 0.00 | |||
| 20260502191515 | 15 | 0.0 | 0.0 | 0.00 | 0.00 | 0.00 | |||
| 20260502190515 | 15 | 0.0 | 0.0 | 0.00 | 0.00 | 0.00 | |||
| 20260502185535 | 15 | 307 | 3.2 | 11.3 | 0.00 | 0.00 | 0.00 | ||
| 20260502184515 | 15 | 299 | 6.4 | 12.9 | 0.00 | 0.00 | 0.00 | ||
| 20260502183515 | 16 | 299 | 8.0 | 14.5 | 0.00 | 0.00 | 0.00 | ||
| 20260502182535 | 16 | 300 | 8.0 | 16.1 | 0.00 | 0.00 | 0.00 | ||
| 20260502181515 | 16 | 303 | 8.0 | 14.5 | 0.00 | 0.00 | 0.00 | ||
| 20260502180515 | 17 | 298 | 8.0 | 14.5 | 0.00 | 0.00 | 0.00 | ||
| 20260502170515 | 18 | 268 | 9.7 | 16.1 | 0.00 | 0.00 | 0.00 | ||
| 20260502163515 | 18 | 266 | 12.9 | 19.3 | 0.00 | 0.00 | 0.00 | ||
| 20260502162515 | 18 | 266 | 11.3 | 19.3 | 0.00 | 0.00 | 0.00 | ||
| 20260502161515 | 18 | 264 | 8.0 | 12.9 | 0.00 | 0.00 | 0.00 | ||
| 20260502160515 | 18 | 265 | 14.5 | 19.3 | 0.00 | 0.00 | 0.00 | ||
| 20260502151515 | 20 | 268 | 14.5 | 22.5 | 0.00 | 0.00 | 0.00 | ||
| 20260502150515 | 20 | 255 | 16.1 | 22.5 | 0.00 | 0.00 | 0.00 | ||
| 20260502130515 | 20 | 223 | 19.3 | 29.0 | 0.00 | 0.00 | 0.00 | ||
| 20260502123515 | 20 | 226 | 16.1 | 29.0 | 0.00 | 0.00 | 0.00 | ||
| 20260502122515 | 20 | 227 | 17.7 | 25.7 | 0.00 | 0.00 | 0.00 | ||
| 20260502121515 | 21 | 225 | 16.1 | 24.1 | 0.00 | 0.00 | 0.00 | ||
| 20260502120515 | 20 | 229 | 20.9 | 27.4 | 0.00 | 0.00 | 0.00 | ||
| 20260502115515 | 20 | 222 | 19.3 | 27.4 | 0.00 | 0.00 | 0.00 | ||
| 20260502114515 | 20 | 220 | 19.3 | 29.0 | 0.00 | 0.00 | 0.00 | ||
| 20260502113515 | 21 | 221 | 16.1 | 29.0 | 0.00 | 0.00 | 0.00 | ||
| 20260502112515 | 20 | 223 | 12.9 | 22.5 | 0.00 | 0.00 | 0.00 | ||
| 20260502111535 | 20 | 242 | 14.5 | 20.9 | 0.00 | 0.00 | 0.00 | ||
| 20260502110515 | 20 | 237 | 11.3 | 17.7 | 0.00 | 0.00 | 0.00 | ||
| 20260502105515 | 20 | 236 | 8.0 | 16.1 | 0.00 | 0.00 | 0.00 | ||
| 20260502104515 | 20 | 228 | 12.9 | 17.7 | 0.00 | 0.00 | 0.00 | ||
| 20260502103515 | 20 | 230 | 8.0 | 16.1 | 0.00 | 0.00 | 0.00 | ||
| 20260502102515 | 18 | 215 | 4.8 | 9.7 | 0.00 | 0.00 | 0.00 | ||
| 20260502101515 | 20 | 205 | 3.2 | 11.3 | 0.00 | 0.00 | 0.00 | ||
| 20260502100535 | 18 | 199 | 6.4 | 11.3 | 0.00 | 0.00 | 0.00 | ||
| 20260502091515 | 17 | 193 | 14.5 | 20.9 | 0.00 | 0.00 | 0.00 | ||
| 20260502090515 | 18 | 199 | 16.1 | 20.9 | 0.00 | 0.00 | 0.00 | ||
| 20260502071515 | 26 | 202 | 12.9 | 17.7 | 0.00 | 0.00 | 0.00 | ||
| 20260502070515 | 26 | 205 | 12.9 | 22.5 | 0.00 | 0.00 | 0.00 | ||
| 20260502065515 | 27 | 194 | 12.9 | 17.7 | 0.00 | 0.00 | 0.00 | ||
| 20260502064535 | 26 | 192 | 14.5 | 19.3 | 0.00 | 0.00 | 0.00 | ||
| 20260502063515 | 27 | 193 | 11.3 | 17.7 | 0.00 | 0.00 | 0.00 | ||
| 20260502062515 | 27 | 191 | 9.7 | 16.1 | 0.00 | 0.00 | 0.00 | ||
| 20260502061515 | 26 | 176 | 3.2 | 11.3 | 0.00 | 0.00 | 0.00 | ||
| 20260502060515 | 26 | 0.0 | 0.0 | 0.00 | 0.00 | 0.00 | |||
| 20260502055535 | 26 | 0.0 | 0.0 | 0.00 | 0.00 | 0.00 | |||
| 20260502054515 | 25 | 0.0 | 0.0 | 0.00 | 0.00 | 0.00 | |||
| 20260502053515 | 25 | 165 | 0.0 | 4.8 | 0.00 | 0.00 | 0.00 | ||
| 20260502052515 | 23 | 166 | 3.2 | 6.4 | 0.00 | 0.00 | 0.00 | ||
| 20260502051535 | 22 | 193 | 6.4 | 14.5 | 0.00 | 0.00 | 0.00 | ||
| 20260502050515 | 21 | 171 | 4.8 | 8.0 | 0.00 | 0.00 | 0.00 | ||
| 20260502045515 | 20 | 165 | 4.8 | 8.0 | 0.00 | 0.00 | 0.00 | ||
| 20260502044515 | 18 | 171 | 6.4 | 9.7 | 0.00 | 0.00 | 0.00 | ||
| 20260502043515 | 15 | 167 | 11.3 | 14.5 | 0.00 | 0.00 | 0.00 | ||
| 20260502042515 | 13 | 179 | 11.3 | 14.5 | 0.00 | 0.00 | 0.00 | ||
| 20260502041515 | 11 | 174 | 8.0 | 11.3 | 0.00 | 0.00 | 0.00 | ||
| 20260502040515 | 10 | 163 | 9.7 | 12.9 | 0.00 | 0.00 | 0.00 | ||
| 20260502035515 | 10 | 170 | 8.0 | 11.3 | 0.00 | 0.00 | 0.00 | ||
| 20260502034515 | 10 | 167 | 9.7 | 12.9 | 0.00 | 0.00 | 0.00 | ||
| 20260502033515 | 10 | 163 | 9.7 | 12.9 | 0.00 | 0.00 | 0.00 | ||
| 20260502032515 | 11 | 159 | 8.0 | 11.3 | 0.00 | 0.00 | 0.00 | ||
| 20260502031515 | 11 | 156 | 3.2 | 8.0 | 0.00 | 0.00 | 0.00 | ||
| 20260502030516 | 11 | 159 | 6.4 | 9.7 | 0.00 | 0.00 | 0.00 | ||
| 20260502025515 | 11 | 158 | 8.0 | 11.3 | 0.00 | 0.00 | 0.00 | ||
| 20260502024515 | 11 | 0.0 | 0.0 | 0.00 | 0.00 | 0.00 | |||
| 20260502023515 | 11 | 0.0 | 0.0 | 0.00 | 0.00 | 0.00 | |||
| 20260502022515 | 11 | 156 | 4.8 | 8.0 | 0.00 | 0.00 | 0.00 | ||
| 20260502021515 | 11 | 162 | 4.8 | 9.7 | 0.00 | 0.00 | 0.00 | ||
| 20260502020515 | 11 | 150 | 4.8 | 8.0 | 0.00 | 0.00 | 0.00 | ||
| 20260502015515 | 11 | 144 | 0.0 | 4.8 | 0.00 | 0.00 | 0.00 | ||
| 20260502014515 | 11 | 146 | 3.2 | 8.0 | 0.00 | 0.00 | 0.00 | ||
| 20260502013515 | 11 | 149 | 4.8 | 6.4 | 0.00 | 0.00 | 0.00 | ||
| 20260502012515 | 11 | 132 | 0.0 | 4.8 | 0.00 | 0.00 | 0.00 | ||
| 20260502011515 | 12 | 154 | 1.6 | 4.8 | 0.00 | 0.00 | 0.00 | ||
| 20260502010515 | 12 | 0.0 | 0.0 | 0.00 | 0.00 | 0.00 | |||
| 20260502005535 | 12 | 0.0 | 0.0 | 0.00 | 0.00 | 0.00 |